Location: Krasnoyarskiy Pitomnik
(51.1333°N, 71.6167°E)
Time: 04:30:57
(UTC+00:00)

Transit 4A - Pass Details

Date: 15 April 2024
Orbit: 871 x 971 km, 66.8° (Epoch: 28 May)

Event Time Altitude Azimuth Distance (km) Brightness Sun altitude
Rises 16:19:59 0° 321° (NW) 3,478 12.6 -18.2°
Reaches altitude 10° 16:22:35 10° 328° (NNW) 2,532 11.4 -18.5°
Maximum altitude 16:28:11 45° 41° (NE) 1,175 8.4 -19.1°
Enters shadow 16:31:01 27° 98° (E) 1,637 8.8 -19.4°
